This is the latest recevied weather packets stored in our database for station/object KC0AFB. If no packets are shown the sender has not sent any weather packets the latest 10 day(s).
| Time | Temp. | Humidity | Pressure | Rain* | Wind** | Luminosity | Snow |
|---|---|---|---|---|---|---|---|
| 1778167981 | 8.89° C | 50% | 1012.3 hPa | 0 mm | - | 602 W/m² | - |
| 1778167678 | 8.89° C | 52% | 1012.5 hPa | 0 mm | - | 70 W/m² | - |
| 1778167374 | 8.33° C | 54% | 1012.4 hPa | 0 mm | - | 65 W/m² | - |
| 1778167070 | 8.89° C | 50% | 1012.2 hPa | 0 mm | - | 70 W/m² | - |
| 1778166766 | 8.33° C | 51% | 1012.4 hPa | 0 mm | - | 559 W/m² | - |
| 1778166463 | 7.78° C | 53% | 1012.6 hPa | 0 mm | - | 539 W/m² | - |
| 1778166160 | 7.78° C | 52% | 1012.5 hPa | 0 mm | - | 513 W/m² | - |
| 1778165856 | 7.22° C | 52% | 1012.6 hPa | 0 mm | - | 424 W/m² | - |
| 1778165553 | 7.22° C | 51% | 1012.4 hPa | 0 mm | - | 416 W/m² | - |
| 1778165250 | 7.22° C | 52% | 1012.4 hPa | 0 mm | - | 429 W/m² | - |
| 1778164948 | 6.67° C | 52% | 1012.5 hPa | 0 mm | - | 402 W/m² | - |
| 1778164644 | 6.67° C | 53% | 1012.5 hPa | 0 mm | - | 372 W/m² | - |
| 1778164341 | 6.67° C | 53% | 1012.5 hPa | 0 mm | - | 347 W/m² | - |
| 1778164037 | 6.11° C | 54% | 1012.4 hPa | 0 mm | - | 328 W/m² | - |
| 1778163734 | 6.11° C | 58% | 1012.6 hPa | 0 mm | - | 307 W/m² | - |
| 1778163430 | 5.56° C | 58% | 1012.5 hPa | 0 mm | - | 291 W/m² | - |
| 1778163127 | 5° C | 58% | 1012.5 hPa | 0 mm | - | 280 W/m² | - |
| 1778162823 | 5° C | 59% | 1012.5 hPa | 0 mm | - | 258 W/m² | - |
| 1778162521 | 5° C | 59% | 1012.3 hPa | 0 mm | - | 259 W/m² | - |
| 1778162218 | 5° C | 60% | 1012.5 hPa | 0 mm | - | 240 W/m² | - |
| 1778161915 | 4.44° C | 62% | 1012.5 hPa | 0 mm | - | 230 W/m² | - |
| 1778161611 | 5° C | 62% | 1012.3 hPa | 0 mm | - | 212 W/m² | - |
| 1778161308 | 3.89° C | 64% | 1012.1 hPa | 0 mm | - | 208 W/m² | - |
| 1778161003 | 4.44° C | 63% | 1012.3 hPa | 0 mm | - | 189 W/m² | - |
| 1778160701 | 3.89° C | 61% | 1012.2 hPa | 0 mm | - | 181 W/m² | - |
* Rain latest hour (hover to see other rain measurements)
** Current wind speed in m/s (hover to see current wind gust speed)